San Jose, Costa Rica

1:05 PM CST on January 22, 2017 (GMT -0600)
Juan Santamaria International

Weather History for MROC - June, 2013

Change the Weather History Date:

Sunday, June 16, 2013

  Actual Average Record
Temperature  
Mean Temperature 74 °F -  
Max Temperature 83 °F 80 °F 86 °F (2001)
Min Temperature 64 °F 65 °F 62 °F (1999)
Cooling Degree Days 8    
Growing Degree Days 24 (Base 50)    
Moisture  
Dew Point 67 °F    
Average Humidity 81    
Maximum Humidity 100    
Minimum Humidity 43    
Precipitation  
Precipitation 0.35 in 0.30 in - ()
Sea Level Pressure  
Sea Level Pressure 29.93 in    
Wind  
Wind Speed 5 mph ()    
Max Wind Speed 16 mph    
Max Gust Speed -    
Visibility 6.5 miles    
Events Fog , Rain , Thunderstorm    
Averages and records for this station are not official NWS values.
T = Trace of Precipitation, MM = Missing Value Source: Averaged Metar Reports

Daily Weather History Graph

Daily Weather History Graph

Search for Another Location

Airport or City:

Trip Planner

Search our weather history database for the weather conditions in past years. The results will help you decide how hot, cold, wet, or windy it might be!

Date:

Astronomy

Jun. 16, 2013 Rise Set
Actual Time 5:16 AM CST 5:58 PM CST
Civil Twilight 4:53 AM CST 6:21 PM CST
Nautical Twilight 4:26 AM CST 6:49 PM CST
Astronomical Twilight 3:58 AM CST 7:16 PM CST
Moon 11:36 AM CST (6/16) 11:54 PM CST (6/16)
Length of Visible Light 13h 28m
Length of Day
12h 42m
Waxing Crescent, 50% of the Moon is Illuminated
Jun 16
Waxing Crescent
Jun 23
Full
Jun 29
Last Quarter
Jul 8
New
Jul 15
First Quarter

Hourly Weather History & Observations

Time (CST) Temp. Heat Index Dew Point Humidity Pressure Visibility Wind Dir Wind Speed Gust Speed Precip Events Conditions
12:00 AM 70 °F - 69 °F 94% 29.81 in 3 mi Calm Calm - - Fog Light Fog
12:00 AM 69.8 °F - 68.0 °F 94% 29.99 in 3.1 mi Calm Calm - N/A   Mostly Cloudy
1:00 AM 69.8 °F - 68.0 °F 94% 29.97 in 6.2 mi Calm Calm - N/A   Mostly Cloudy
2:00 AM 69.8 °F - 68.0 °F 94% 29.95 in 6.2 mi Calm Calm - N/A   Mostly Cloudy
3:00 AM 68 °F - 66 °F 90% 29.81 in 9 mi NE 4.6 mph - -   Partly Cloudy
3:00 AM 68.0 °F - 66.2 °F 94% 29.94 in 6.2 mi NE 1.2 mph - N/A   Mostly Cloudy
4:00 AM 66.2 °F - 64.4 °F 94% 29.94 in 6.2 mi ENE 2.3 mph - N/A   Mostly Cloudy
5:00 AM 64.4 °F - 62.6 °F 94% 29.95 in - East 4.6 mph - N/A   Clear
6:00 AM 65 °F - 62 °F 86% 29.82 in 12 mi East 5.8 mph - -   Scattered Clouds
6:00 AM 66.2 °F - 60.8 °F 83% 29.96 in - East 5.8 mph - N/A   Clear
7:00 AM 73.4 °F - 62.6 °F 69% 30.00 in - ENE 10.4 mph - N/A   Clear
8:00 AM 77.0 °F - 62.6 °F 61% 29.99 in - East 6.9 mph - N/A   Clear
9:00 AM 82 °F - 63 °F 43% 29.81 in 12 mi WSW 10.4 mph - -   Clear
9:00 AM 82.4 °F 83.4 °F 62.6 °F 51% 30.00 in - WSW 10.4 mph - N/A   Clear
10:00 AM 80.6 °F 82.3 °F 64.4 °F 58% 30.01 in 6.2 mi WSW 13.8 mph - N/A   Scattered Clouds
11:00 AM 80.6 °F 82.7 °F 66.2 °F 61% 30.00 in 6.2 mi WSW 12.7 mph - N/A   Mostly Cloudy
12:00 PM 81 °F - 68 °F 57% 29.80 in 12 mi WSW 12.7 mph - -   Overcast
12:00 PM 80.6 °F 83.2 °F 68.0 °F 65% 29.98 in 6.2 mi WSW 12.7 mph - N/A   Mostly Cloudy
1:00 PM 82.4 °F 84.6 °F 66.2 °F 58% 29.96 in 6.2 mi West 12.7 mph - N/A   Mostly Cloudy
2:00 PM 82.4 °F 86.3 °F 69.8 °F 66% 29.94 in 6.2 mi WSW 16.1 mph - N/A   Mostly Cloudy
3:00 PM 79 °F - 69 °F 64% 29.77 in 12 mi WSW 11.5 mph - -   Overcast
3:00 PM 78.8 °F - 69.8 °F 74% 29.93 in 6.2 mi WSW 11.5 mph - N/A   Scattered Clouds
3:35 PM 71.6 °F - 71.6 °F 100% 29.95 in 1.2 mi WSW 11.5 mph - N/A Rain , Thunderstorm Light Thunderstorms and Rain
4:00 PM 73.4 °F - 71.6 °F 94% 29.95 in 1.2 mi WSW 9.2 mph - N/A Rain Rain
4:25 PM 71.6 °F - 69.8 °F 94% 29.96 in 6.2 mi WSW 8.1 mph - N/A   Mostly Cloudy
5:00 PM 73.4 °F - 71.6 °F 94% 29.97 in 6.2 mi WSW 5.8 mph - N/A   Mostly Cloudy
6:00 PM 72 °F - 69 °F 89% 29.81 in 9 mi NW 4.6 mph - -   Overcast
6:00 PM 73.4 °F - 69.8 °F 88% 29.97 in 6.2 mi NW 4.6 mph - N/A   Mostly Cloudy
7:00 PM 71.6 °F - 69.8 °F 94% 29.96 in 6.2 mi SW 2.3 mph - N/A   Mostly Cloudy
8:00 PM 71.6 °F - 69.8 °F 94% 29.99 in 6.2 mi SSE 2.3 mph - N/A   Scattered Clouds
9:00 PM 72 °F - 70 °F 91% 29.84 in 5 mi West 3.5 mph - -   Overcast
9:00 PM 71.6 °F - 69.8 °F 94% 30.02 in 5.0 mi West 3.5 mph - N/A Fog Fog
10:00 PM 71.6 °F - 68.0 °F 88% - 6.2 mi WSW 2.3 mph - N/A Fog Mostly Cloudy
11:00 PM 71.6 °F - 69.8 °F 94% 29.98 in 6.2 mi Calm Calm - N/A Fog Mostly Cloudy